SERVIS 2 DEB, 43393

Orbit data source: Space-Track

SERVIS 2 DEB, 43393 is space debris in SSO originally from a launch on Wed, 02 Jun 2010 UTC launched from the Plesetsk Missile And Space Complex (PKMTR). Debris objects in space refer to the collection of defunct objects orbiting the Earth. Examples of debris include non-operational satellites, rocket bodies, and fragments generated from explosions, collisions, or faulty payload assembly.

Loading next visibility...
Identifier
43393, 2010-023C
Orbit
SSO
Last TLE update
5 hours ago
Origin
Manufacturer
MELCO
Mission
Spacecraft
Bus & Motor
Unknown
Mass
Unknown
Launch date (UTC)
2010-06-02 (15 years ago)
Launch vehicle
Unknown
Launch site
Plesetsk Missile And Space Complex (PKMTR)
Object type
Payload
Rocket body
Debris
Shape & HBR
Unknown
Radar Cross Section
Small (<0.1 m²)

Expand to show TLE details & history

TLE from 5 hours ago
0 SERVIS 2 DEB
1 43393U 10023C   25187.87664619  .00003562  00000-0  61923-2 0  9997
2 43393 100.6110 153.5974 0028124  56.1227 304.2571 13.44281991564039
Epoch: 2025-07-06T21:02Z
TLE epoch observation values (Epoch: 2025-07-06T21:02:22.23Z)
Latitude
-0.00003°
Longitude
-87.08926°
Altitude
1,084.326 km
Speed
7.316 km/s
True Right ascension
10h 14m 23s
True Declination
0° 00' 00"
Sunlit
Object was in daylight at epoch
Visualization orbit readout
Latitude
-78.27731°
Longitude
-22.94397°
Altitude
1,137.299 km
Speed
7.276 km/s
Apparent Right ascension
01h 45m 01s
Apparent Declination
-73° 27' 20"
Sunlit
Object is in daylight
Visualization observer readout
Local Sidereal Time
13:59:17
Azimuth
178.164° S
Elevation
-56.417°
Doppler factor
1
Orbital elements
Apogee altitude
1,111.734 km
Perigee altitude
1,069.723 km
Semi-major axis
7,468.866 km
Eccentricity
0.00281
Inclination
100.611°
RAAN
153.5974°
Arg. of periapsis
56.1227°
True anomaly
Unknown
Mean anomaly
304.2571°
Eccentric anomaly
Unknown
Mean motion
3.36249 °/min
Orbital period
107.06 mins
BSTAR
0.0061923
Loading maneuver chart data...
Loading SW <> Apogee altitude chart data...
Loading historical data...
Loading historical data...
Loading historical data...
Loading historical data...
Loading historical data...
Loading historical data...
Loading historical data...
Other satellites on launch #23 in the year 2010 (2010-06-02 UTC)

SERVIS 2 DEB Visibility forecast

Observer location: undefined°, undefined°

Span
Click to sort rows by Start time (UTC) header in descending order
Start Az.
Max El. time (UTC)
Max El. Az.
Max El.
End time (UTC)
End Az.
12 mins2025-07-07 10:08:34.868Z28.9° NE2025-07-07 10:14:34.868Z108.348° ESE37.133°2025-07-07 10:20:34.868Z175.126° S
9 mins2025-07-07 11:55:34.868Z345.75° N2025-07-07 11:59:34.868Z296.893° NW26.307°2025-07-07 12:04:34.868Z243.455° WSW
9 mins2025-07-07 20:25:34.868Z106.385° ESE2025-07-07 20:29:34.868Z55.223° ENE25.656°2025-07-07 20:34:34.868Z5.22° NNE
11 mins2025-07-07 22:09:34.868Z189.739° SSW2025-07-07 22:14:34.868Z265.854° W37.204°2025-07-07 22:20:34.868Z333.001° NNW
|